Time,TemperatureF,DewpointF,PressureIn,WindDirection,WindDirectionDegrees,WindSpeedMPH,WindSpeedGustMPH,Humidity,HourlyPrecipIn,Conditions,Clouds,dailyrainin,SoftwareType,DateUTC
2013-08-04 00:06:00,58.5,55.6,29.89,SSW,195,6.0,16.0,90,0.00,,,0.00,meteohub,2013-08-03 23:06:00,
2013-08-04 00:17:00,58.3,55.6,29.89,SSW,196,2.0,11.0,91,0.00,,,0.00,meteohub,2013-08-03 23:17:00,
2013-08-04 00:22:00,58.1,55.4,29.89,South,179,2.0,11.0,91,0.00,,,0.00,meteohub,2013-08-03 23:22:00,
2013-08-04 00:32:00,57.7,55.2,29.89,South,184,5.0,11.0,91,0.00,,,0.00,meteohub,2013-08-03 23:32:00,
2013-08-04 00:36:00,57.7,55.2,29.89,SSW,194,6.0,11.0,91,0.00,,,0.00,meteohub,2013-08-03 23:36:00,
2013-08-04 00:46:00,57.7,55.2,29.89,South,174,4.0,10.0,91,0.01,,,0.01,meteohub,2013-08-03 23:46:00,
2013-08-04 00:51:00,57.9,55.2,29.89,South,181,5.0,10.0,91,0.01,,,0.01,meteohub,2013-08-03 23:51:00,
2013-08-04 01:02:00,57.7,55.2,29.88,South,182,4.0,9.0,91,0.01,,,0.01,meteohub,2013-08-04 00:02:00,
2013-08-04 01:07:00,57.4,54.9,29.89,South,179,2.0,9.0,91,0.01,,,0.01,meteohub,2013-08-04 00:07:00,
2013-08-04 01:12:00,57.0,54.5,29.89,South,179,1.0,6.0,91,0.01,,,0.01,meteohub,2013-08-04 00:12:00,
2013-08-04 01:22:00,56.5,54.0,29.89,South,177,9.0,10.0,91,0.01,,,0.01,meteohub,2013-08-04 00:22:00,
2013-08-04 01:27:00,56.3,54.0,29.89,SSW,195,4.0,11.0,92,0.01,,,0.01,meteohub,2013-08-04 00:27:00,
2013-08-04 01:32:00,56.3,54.0,29.89,SSW,192,4.0,11.0,92,0.01,,,0.01,meteohub,2013-08-04 00:32:00,
2013-08-04 01:41:00,56.3,54.0,29.88,SE,146,2.0,13.0,92,0.00,,,0.01,meteohub,2013-08-04 00:41:00,
2013-08-04 01:47:00,56.1,53.8,29.88,South,183,8.0,13.0,92,0.00,,,0.01,meteohub,2013-08-04 00:47:00,
2013-08-04 01:57:00,55.8,53.4,29.88,South,180,5.0,15.0,92,0.00,,,0.01,meteohub,2013-08-04 00:57:00,
2013-08-04 02:07:00,55.6,53.2,29.88,South,174,5.0,11.0,92,0.00,,,0.01,meteohub,2013-08-04 01:07:00,
2013-08-04 02:12:00,55.4,53.1,29.88,South,178,5.0,13.0,92,0.00,,,0.01,meteohub,2013-08-04 01:12:00,
2013-08-04 02:17:00,55.4,53.1,29.88,South,171,4.0,13.0,92,0.00,,,0.01,meteohub,2013-08-04 01:17:00,
2013-08-04 02:26:00,55.2,52.9,29.88,South,182,6.0,10.0,92,0.00,,,0.01,meteohub,2013-08-04 01:26:00,
2013-08-04 02:32:00,55.2,52.9,29.88,South,173,5.0,10.0,92,0.00,,,0.01,meteohub,2013-08-04 01:32:00,
2013-08-04 02:42:00,55.0,52.7,29.88,South,170,4.0,11.0,92,0.00,,,0.01,meteohub,2013-08-04 01:42:00,
2013-08-04 02:47:00,55.0,52.7,29.88,SSE,162,4.0,11.0,92,0.00,,,0.01,meteohub,2013-08-04 01:47:00,
2013-08-04 02:57:00,55.0,52.7,29.88,SSE,165,2.0,8.0,92,0.00,,,0.01,meteohub,2013-08-04 01:57:00,
2013-08-04 03:02:00,55.2,52.9,29.88,South,176,5.0,9.0,92,0.00,,,0.01,meteohub,2013-08-04 02:02:00,
2013-08-04 03:12:00,55.2,52.9,29.88,South,182,1.0,8.0,92,0.00,,,0.01,meteohub,2013-08-04 02:12:00,
2013-08-04 03:17:00,55.0,52.7,29.88,South,182,0.0,8.0,92,0.00,,,0.01,meteohub,2013-08-04 02:17:00,
2013-08-04 03:27:00,55.0,52.7,29.88,South,182,0.0,5.0,92,0.00,,,0.01,meteohub,2013-08-04 02:27:00,
2013-08-04 03:32:00,54.9,52.5,29.88,South,182,2.0,5.0,92,0.00,,,0.01,meteohub,2013-08-04 02:32:00,
2013-08-04 03:42:00,54.5,52.2,29.88,South,178,0.0,8.0,92,0.00,,,0.01,meteohub,2013-08-04 02:42:00,
2013-08-04 03:47:00,54.3,52.0,29.88,South,175,1.0,8.0,92,0.00,,,0.01,meteohub,2013-08-04 02:47:00,
2013-08-04 03:57:00,54.3,52.0,29.88,SSE,150,4.0,9.0,92,0.00,,,0.01,meteohub,2013-08-04 02:57:00,
2013-08-04 04:07:00,54.3,52.0,29.88,SSE,153,4.0,9.0,92,0.00,,,0.01,meteohub,2013-08-04 03:07:00,
2013-08-04 04:12:00,54.1,51.8,29.88,SSE,151,2.0,8.0,92,0.00,,,0.01,meteohub,2013-08-04 03:12:00,
2013-08-04 04:17:00,54.1,51.8,29.88,South,169,1.0,8.0,92,0.00,,,0.01,meteohub,2013-08-04 03:17:00,
2013-08-04 04:22:00,54.0,51.6,29.88,SSE,165,0.0,5.0,92,0.00,,,0.01,meteohub,2013-08-04 03:22:00,
2013-08-04 04:26:00,53.8,51.8,29.88,SSE,165,0.0,5.0,93,0.00,,,0.01,meteohub,2013-08-04 03:26:00,
2013-08-04 04:36:00,53.1,50.7,29.88,SSE,165,4.0,4.0,92,0.00,,,0.01,meteohub,2013-08-04 03:36:00,
2013-08-04 04:42:00,52.5,50.5,29.88,SSE,165,0.0,4.0,93,0.00,,,0.01,meteohub,2013-08-04 03:42:00,
2013-08-04 04:47:00,52.7,50.7,29.88,SSE,165,0.0,4.0,93,0.00,,,0.01,meteohub,2013-08-04 03:47:00,
2013-08-04 04:57:00,52.3,50.4,29.88,SSE,165,0.0,2.0,93,0.00,,,0.01,meteohub,2013-08-04 03:57:00,
2013-08-04 05:02:00,52.5,50.5,29.88,SSE,165,0.0,0.0,93,0.00,,,0.01,meteohub,2013-08-04 04:02:00,
2013-08-04 05:07:00,52.5,50.5,29.88,SSE,165,0.0,0.0,93,0.00,,,0.01,meteohub,2013-08-04 04:07:00,
2013-08-04 05:12:00,52.5,50.5,29.88,SSE,165,1.0,2.0,93,0.00,,,0.01,meteohub,2013-08-04 04:12:00,
2013-08-04 05:17:00,52.5,50.5,29.88,SSE,165,2.0,4.0,93,0.00,,,0.01,meteohub,2013-08-04 04:17:00,
2013-08-04 05:21:00,52.9,51.3,29.88,SSE,165,0.0,4.0,94,0.00,,,0.01,meteohub,2013-08-04 04:21:00,
2013-08-04 05:27:00,52.9,51.3,29.88,SSE,165,2.0,5.0,94,0.00,,,0.01,meteohub,2013-08-04 04:27:00,
2013-08-04 05:32:00,52.9,51.3,29.88,SSE,165,0.0,5.0,94,0.00,,,0.01,meteohub,2013-08-04 04:32:00,
2013-08-04 05:37:00,52.7,51.1,29.88,SSE,165,0.0,5.0,94,0.00,,,0.01,meteohub,2013-08-04 04:37:00,
2013-08-04 05:42:00,52.9,51.3,29.88,SSE,165,1.0,4.0,94,0.00,,,0.01,meteohub,2013-08-04 04:42:00,
2013-08-04 05:47:00,52.9,51.3,29.88,SSE,165,1.0,5.0,94,0.00,,,0.01,meteohub,2013-08-04 04:47:00,
2013-08-04 05:52:00,52.7,51.1,29.88,SSE,165,1.0,5.0,94,0.00,,,0.01,meteohub,2013-08-04 04:52:00,
2013-08-04 05:57:00,52.5,50.5,29.88,SSE,165,4.0,5.0,93,0.00,,,0.01,meteohub,2013-08-04 04:57:00,
2013-08-04 06:02:00,52.5,50.5,29.88,SSE,165,2.0,5.0,93,0.00,,,0.01,meteohub,2013-08-04 05:02:00,
2013-08-04 06:07:00,52.7,51.1,29.88,SSE,165,0.0,6.0,94,0.00,,,0.01,meteohub,2013-08-04 05:07:00,
2013-08-04 06:12:00,52.5,50.5,29.88,SSE,165,1.0,8.0,93,0.00,,,0.01,meteohub,2013-08-04 05:12:00,
2013-08-04 06:17:00,52.5,50.5,29.88,SSE,162,0.0,9.0,93,0.00,,,0.01,meteohub,2013-08-04 05:17:00,
2013-08-04 06:22:00,52.5,50.9,29.88,SSE,164,1.0,9.0,94,0.00,,,0.01,meteohub,2013-08-04 05:22:00,
2013-08-04 06:26:00,52.5,50.9,29.88,South,184,1.0,9.0,94,0.00,,,0.01,meteohub,2013-08-04 05:26:00,
2013-08-04 06:32:00,52.9,51.3,29.88,SSE,168,8.0,8.0,94,0.00,,,0.01,meteohub,2013-08-04 05:32:00,
2013-08-04 06:36:00,53.1,51.4,29.88,SSE,166,2.0,8.0,94,0.00,,,0.01,meteohub,2013-08-04 05:36:00,
2013-08-04 06:42:00,53.2,51.6,29.88,South,172,0.0,8.0,94,0.00,,,0.01,meteohub,2013-08-04 05:42:00,
2013-08-04 06:52:00,53.2,51.6,29.88,South,176,1.0,6.0,94,0.00,,,0.01,meteohub,2013-08-04 05:52:00,
2013-08-04 06:57:00,53.2,51.6,29.88,South,175,4.0,6.0,94,0.00,,,0.01,meteohub,2013-08-04 05:57:00,
2013-08-04 07:02:00,53.2,51.6,29.89,South,186,1.0,6.0,94,0.00,,,0.01,meteohub,2013-08-04 06:02:00,
2013-08-04 07:12:00,53.4,51.8,29.89,SSE,167,1.0,6.0,94,0.00,,,0.01,meteohub,2013-08-04 06:12:00,
2013-08-04 07:16:00,53.8,52.2,29.89,South,175,1.0,6.0,94,0.00,,,0.01,meteohub,2013-08-04 06:16:00,
2013-08-04 07:21:00,54.0,52.3,29.89,South,175,0.0,6.0,94,0.00,,,0.01,meteohub,2013-08-04 06:21:00,
2013-08-04 07:26:00,54.1,52.5,29.89,South,173,2.0,6.0,94,0.00,,,0.01,meteohub,2013-08-04 06:26:00,
2013-08-04 07:32:00,54.1,52.5,29.89,South,173,0.0,5.0,94,0.00,,,0.01,meteohub,2013-08-04 06:32:00,
2013-08-04 07:37:00,54.3,52.7,29.89,South,173,0.0,4.0,94,0.00,,,0.01,meteohub,2013-08-04 06:37:00,
2013-08-04 07:42:00,54.5,52.9,29.89,South,173,0.0,4.0,94,0.00,,,0.01,meteohub,2013-08-04 06:42:00,
2013-08-04 07:47:00,54.7,53.1,29.89,South,173,0.0,4.0,94,0.00,,,0.01,meteohub,2013-08-04 06:47:00,
2013-08-04 07:51:00,54.9,53.2,29.90,South,173,0.0,2.0,94,0.00,,,0.01,meteohub,2013-08-04 06:51:00,
2013-08-04 07:57:00,55.0,53.6,29.90,South,173,0.0,0.0,95,0.00,,,0.01,meteohub,2013-08-04 06:57:00,
2013-08-04 08:01:00,55.4,53.8,29.90,ESE,112,0.0,0.0,94,0.00,,,0.01,meteohub,2013-08-04 07:01:00,
2013-08-04 08:06:00,55.6,54.1,29.90,SE,144,5.0,6.0,95,0.00,,,0.01,meteohub,2013-08-04 07:06:00,
2013-08-04 08:12:00,55.8,54.3,29.90,SE,126,0.0,6.0,95,0.00,,,0.01,meteohub,2013-08-04 07:12:00,
2013-08-04 08:16:00,55.8,54.3,29.90,SE,126,0.0,6.0,95,0.00,,,0.01,meteohub,2013-08-04 07:16:00,
2013-08-04 08:27:00,56.5,54.9,29.90,SE,130,0.0,4.0,94,0.00,,,0.01,meteohub,2013-08-04 07:27:00,
2013-08-04 08:37:00,57.4,55.6,29.91,South,175,0.0,5.0,94,0.00,,,0.01,meteohub,2013-08-04 07:37:00,
2013-08-04 08:47:00,57.7,55.8,29.91,South,175,0.0,5.0,93,0.00,,,0.01,meteohub,2013-08-04 07:47:00,
2013-08-04 08:52:00,58.5,56.5,29.91,South,175,0.0,2.0,93,0.00,,,0.01,meteohub,2013-08-04 07:52:00,
2013-08-04 08:57:00,59.2,57.2,29.91,South,175,4.0,5.0,93,0.00,,,0.01,meteohub,2013-08-04 07:57:00,
2013-08-04 09:02:00,59.7,57.7,29.90,South,187,0.0,5.0,93,0.00,,,0.01,meteohub,2013-08-04 08:02:00,
2013-08-04 09:07:00,60.3,57.9,29.90,South,173,5.0,6.0,92,0.00,,,0.01,meteohub,2013-08-04 08:07:00,
2013-08-04 09:12:00,60.4,57.7,29.90,South,175,2.0,6.0,91,0.00,,,0.01,meteohub,2013-08-04 08:12:00,
2013-08-04 09:17:00,60.6,57.7,29.90,South,184,4.0,6.0,90,0.00,,,0.01,meteohub,2013-08-04 08:17:00,
2013-08-04 09:21:00,61.2,57.9,29.90,South,185,6.0,8.0,89,0.00,,,0.01,meteohub,2013-08-04 08:21:00,
2013-08-04 09:27:00,61.5,57.6,29.90,South,191,2.0,8.0,87,0.00,,,0.01,meteohub,2013-08-04 08:27:00,
2013-08-04 09:37:00,62.1,58.1,29.90,SSW,199,2.0,8.0,87,0.00,,,0.01,meteohub,2013-08-04 08:37:00,
2013-08-04 09:42:00,62.2,57.7,29.90,SSW,206,4.0,8.0,85,0.00,,,0.01,meteohub,2013-08-04 08:42:00,
2013-08-04 09:47:00,62.6,57.7,29.90,SSW,207,1.0,8.0,84,0.00,,,0.01,meteohub,2013-08-04 08:47:00,
2013-08-04 09:52:00,63.0,57.0,29.90,WSW,242,1.0,8.0,81,0.00,,,0.01,meteohub,2013-08-04 08:52:00,
2013-08-04 09:57:00,63.0,56.7,29.90,WSW,248,2.0,8.0,80,0.00,,,0.01,meteohub,2013-08-04 08:57:00,
2013-08-04 10:06:00,63.3,57.0,29.90,South,187,2.0,6.0,80,0.00,,,0.01,meteohub,2013-08-04 09:06:00,
2013-08-04 10:12:00,63.7,57.0,29.90,South,185,2.0,8.0,79,0.00,,,0.01,meteohub,2013-08-04 09:12:00,
2013-08-04 10:17:00,64.0,56.7,29.90,SW,215,2.0,8.0,77,0.00,,,0.01,meteohub,2013-08-04 09:17:00,
2013-08-04 10:27:00,64.8,57.4,29.90,SSW,194,1.0,9.0,77,0.00,,,0.01,meteohub,2013-08-04 09:27:00,
2013-08-04 10:32:00,64.2,56.5,29.90,SSW,195,0.0,9.0,76,0.00,,,0.01,meteohub,2013-08-04 09:32:00,
2013-08-04 10:37:00,64.2,56.5,29.90,SW,226,6.0,9.0,76,0.00,,,0.01,meteohub,2013-08-04 09:37:00,
2013-08-04 10:47:00,65.1,56.7,29.90,WNW,300,5.0,8.0,74,0.00,,,0.01,meteohub,2013-08-04 09:47:00,
2013-08-04 10:52:00,65.1,56.3,29.90,WSW,240,0.0,8.0,73,0.00,,,0.01,meteohub,2013-08-04 09:52:00,
2013-08-04 11:02:00,64.6,55.0,29.90,SW,221,0.0,6.0,71,0.00,,,0.01,meteohub,2013-08-04 10:02:00,
2013-08-04 11:07:00,64.8,55.9,29.90,SSW,213,0.0,6.0,73,0.00,,,0.01,meteohub,2013-08-04 10:07:00,
2013-08-04 11:11:00,64.6,55.4,29.90,South,173,1.0,6.0,72,0.00,,,0.01,meteohub,2013-08-04 10:11:00,
2013-08-04 11:17:00,64.9,56.1,29.90,WSW,240,2.0,5.0,73,0.00,,,0.01,meteohub,2013-08-04 10:17:00,
2013-08-04 11:27:00,65.1,56.7,29.90,West,277,0.0,5.0,74,0.00,,,0.01,meteohub,2013-08-04 10:27:00,
2013-08-04 11:32:00,65.7,56.8,29.90,NW,309,2.0,5.0,73,0.00,,,0.01,meteohub,2013-08-04 10:32:00,
2013-08-04 11:41:00,65.8,57.0,29.90,NW,306,0.0,8.0,73,0.00,,,0.01,meteohub,2013-08-04 10:41:00,
2013-08-04 11:47:00,66.0,57.2,29.90,NW,307,0.0,8.0,73,0.00,,,0.01,meteohub,2013-08-04 10:47:00,
2013-08-04 11:52:00,66.7,57.4,29.90,NW,313,5.0,6.0,72,0.00,,,0.01,meteohub,2013-08-04 10:52:00,
2013-08-04 11:57:00,66.2,56.5,29.90,West,269,1.0,8.0,71,0.00,,,0.01,meteohub,2013-08-04 10:57:00,
2013-08-04 12:02:00,66.4,56.7,29.90,NW,309,2.0,9.0,71,0.00,,,0.01,meteohub,2013-08-04 11:02:00,
2013-08-04 12:07:00,66.6,56.1,29.90,North,0,1.0,9.0,69,0.00,,,0.01,meteohub,2013-08-04 11:07:00,
2013-08-04 12:17:00,66.9,56.5,29.90,WNW,303,8.0,8.0,69,0.00,,,0.01,meteohub,2013-08-04 11:17:00,
2013-08-04 12:21:00,66.7,55.8,29.90,West,259,1.0,8.0,68,0.00,,,0.01,meteohub,2013-08-04 11:21:00,
2013-08-04 12:27:00,67.1,56.1,29.90,WSW,242,4.0,8.0,68,0.00,,,0.01,meteohub,2013-08-04 11:27:00,
2013-08-04 12:32:00,67.5,55.8,29.89,WSW,247,0.0,8.0,66,0.00,,,0.01,meteohub,2013-08-04 11:32:00,
2013-08-04 12:37:00,67.3,55.6,29.90,WSW,246,1.0,8.0,66,0.00,,,0.01,meteohub,2013-08-04 11:37:00,
2013-08-04 12:42:00,67.3,55.6,29.90,SW,229,1.0,5.0,66,0.00,,,0.01,meteohub,2013-08-04 11:42:00,
2013-08-04 12:52:00,67.5,55.2,29.89,WSW,257,1.0,8.0,65,0.00,,,0.01,meteohub,2013-08-04 11:52:00,
2013-08-04 12:57:00,67.6,55.4,29.89,WSW,249,1.0,8.0,65,0.00,,,0.01,meteohub,2013-08-04 11:57:00,
2013-08-04 13:07:00,67.5,54.9,29.89,West,265,1.0,6.0,64,0.00,,,0.01,meteohub,2013-08-04 12:07:00,
2013-08-04 13:17:00,68.5,56.7,29.89,SW,226,2.0,9.0,66,0.01,,,0.02,meteohub,2013-08-04 12:17:00,
2013-08-04 13:27:00,67.6,55.4,29.89,SW,219,0.0,6.0,65,0.01,,,0.02,meteohub,2013-08-04 12:27:00,
2013-08-04 13:37:00,68.5,55.4,29.89,SW,216,2.0,8.0,63,0.01,,,0.02,meteohub,2013-08-04 12:37:00,
2013-08-04 13:42:00,68.4,55.2,29.89,West,260,4.0,8.0,63,0.01,,,0.02,meteohub,2013-08-04 12:42:00,
2013-08-04 13:47:00,68.5,56.3,29.89,WSW,248,2.0,8.0,65,0.01,,,0.02,meteohub,2013-08-04 12:47:00,
2013-08-04 13:52:00,68.5,55.4,29.89,NNW,340,0.0,6.0,63,0.01,,,0.02,meteohub,2013-08-04 12:52:00,
2013-08-04 13:57:00,68.4,55.8,29.89,WNW,302,5.0,8.0,64,0.01,,,0.02,meteohub,2013-08-04 12:57:00,
2013-08-04 14:07:00,68.5,55.9,29.90,West,260,1.0,8.0,64,0.01,,,0.02,meteohub,2013-08-04 13:07:00,
2013-08-04 14:12:00,69.4,57.2,29.89,WSW,244,4.0,10.0,65,0.01,,,0.02,meteohub,2013-08-04 13:12:00,
2013-08-04 14:17:00,68.7,56.5,29.89,SW,227,2.0,10.0,65,0.00,,,0.02,meteohub,2013-08-04 13:17:00,
2013-08-04 14:22:00,68.5,56.3,29.89,SSW,209,4.0,9.0,65,0.00,,,0.02,meteohub,2013-08-04 13:22:00,
2013-08-04 14:27:00,67.8,56.1,29.89,WSW,258,1.0,9.0,66,0.00,,,0.02,meteohub,2013-08-04 13:27:00,
2013-08-04 14:37:00,68.5,57.2,29.89,WNW,296,1.0,6.0,67,0.00,,,0.02,meteohub,2013-08-04 13:37:00,
2013-08-04 14:47:00,68.5,57.2,29.88,NW,321,0.0,6.0,67,0.00,,,0.02,meteohub,2013-08-04 13:47:00,
2013-08-04 14:52:00,68.4,56.5,29.88,West,263,0.0,6.0,66,0.00,,,0.02,meteohub,2013-08-04 13:52:00,
2013-08-04 15:01:00,68.2,55.6,29.89,West,280,0.0,6.0,64,0.00,,,0.02,meteohub,2013-08-04 14:01:00,
2013-08-04 15:12:00,68.2,55.6,29.88,WSW,244,0.0,6.0,64,0.00,,,0.02,meteohub,2013-08-04 14:12:00,
2013-08-04 15:22:00,67.3,55.0,29.88,WSW,242,2.0,8.0,65,0.00,,,0.02,meteohub,2013-08-04 14:22:00,
2013-08-04 15:32:00,67.5,54.5,29.88,WNW,298,2.0,8.0,63,0.00,,,0.02,meteohub,2013-08-04 14:32:00,
2013-08-04 15:37:00,67.3,55.6,29.88,WSW,244,4.0,8.0,66,0.00,,,0.02,meteohub,2013-08-04 14:37:00,
2013-08-04 15:42:00,67.8,55.6,29.88,WSW,247,1.0,8.0,65,0.00,,,0.02,meteohub,2013-08-04 14:42:00,
2013-08-04 15:52:00,68.5,55.4,29.88,SW,232,2.0,9.0,63,0.00,,,0.02,meteohub,2013-08-04 14:52:00,
2013-08-04 15:57:00,68.9,55.8,29.88,SW,217,1.0,9.0,63,0.00,,,0.02,meteohub,2013-08-04 14:57:00,
2013-08-04 16:02:00,68.5,54.5,29.88,SW,217,1.0,9.0,61,0.00,,,0.02,meteohub,2013-08-04 15:02:00,
2013-08-04 16:12:00,68.0,55.8,29.88,WSW,251,6.0,6.0,65,0.00,,,0.02,meteohub,2013-08-04 15:12:00,
2013-08-04 16:17:00,67.6,56.3,29.88,SW,221,1.0,6.0,67,0.00,,,0.02,meteohub,2013-08-04 15:17:00,
2013-08-04 16:22:00,67.5,56.1,29.88,WSW,249,1.0,6.0,67,0.00,,,0.02,meteohub,2013-08-04 15:22:00,
2013-08-04 16:27:00,67.5,57.0,29.88,WNW,294,4.0,6.0,69,0.00,,,0.02,meteohub,2013-08-04 15:27:00,
2013-08-04 16:32:00,68.2,56.8,29.88,NW,305,1.0,8.0,67,0.00,,,0.02,meteohub,2013-08-04 15:32:00,
2013-08-04 16:42:00,67.8,55.6,29.88,West,281,0.0,8.0,65,0.00,,,0.02,meteohub,2013-08-04 15:42:00,
2013-08-04 16:47:00,67.6,54.7,29.88,SW,229,1.0,6.0,63,0.00,,,0.02,meteohub,2013-08-04 15:47:00,
2013-08-04 16:57:00,67.8,55.6,29.88,SW,228,0.0,5.0,65,0.00,,,0.02,meteohub,2013-08-04 15:57:00,
2013-08-04 17:02:00,68.2,55.9,29.88,WSW,244,2.0,5.0,65,0.00,,,0.02,meteohub,2013-08-04 16:02:00,
2013-08-04 17:12:00,68.2,55.0,29.88,WSW,241,0.0,5.0,63,0.00,,,0.02,meteohub,2013-08-04 16:12:00,
2013-08-04 17:22:00,68.4,54.9,29.87,SW,231,1.0,8.0,62,0.00,,,0.02,meteohub,2013-08-04 16:22:00,
2013-08-04 17:27:00,68.5,55.4,29.87,WSW,249,1.0,8.0,63,0.00,,,0.02,meteohub,2013-08-04 16:27:00,
2013-08-04 17:32:00,68.4,54.3,29.87,SW,229,2.0,6.0,61,0.00,,,0.02,meteohub,2013-08-04 16:32:00,
2013-08-04 17:37:00,69.4,55.9,29.87,WSW,243,0.0,6.0,62,0.00,,,0.02,meteohub,2013-08-04 16:37:00,
2013-08-04 17:47:00,71.1,55.0,29.87,West,264,2.0,8.0,57,0.00,,,0.02,meteohub,2013-08-04 16:47:00,
2013-08-04 17:52:00,70.5,55.6,29.87,NNW,340,0.0,6.0,59,0.00,,,0.02,meteohub,2013-08-04 16:52:00,
2013-08-04 17:57:00,70.7,55.2,29.87,WSW,244,2.0,6.0,58,0.00,,,0.02,meteohub,2013-08-04 16:57:00,
2013-08-04 18:07:00,70.2,56.5,29.86,NW,308,5.0,6.0,62,0.00,,,0.02,meteohub,2013-08-04 17:07:00,
2013-08-04 18:12:00,70.0,55.0,29.86,West,273,1.0,6.0,59,0.00,,,0.02,meteohub,2013-08-04 17:12:00,
2013-08-04 18:16:00,69.6,55.6,29.86,West,263,1.0,6.0,61,0.00,,,0.02,meteohub,2013-08-04 17:16:00,
2013-08-04 18:27:00,69.3,55.2,29.86,NW,323,1.0,6.0,61,0.00,,,0.02,meteohub,2013-08-04 17:27:00,
2013-08-04 18:31:00,69.4,56.3,29.86,WNW,285,1.0,8.0,63,0.00,,,0.02,meteohub,2013-08-04 17:31:00,
2013-08-04 18:42:00,69.1,55.9,29.86,NNW,340,1.0,8.0,63,0.00,,,0.02,meteohub,2013-08-04 17:42:00,
2013-08-04 18:52:00,68.5,55.9,29.86,WSW,240,4.0,8.0,64,0.00,,,0.02,meteohub,2013-08-04 17:52:00,
2013-08-04 18:57:00,68.2,56.3,29.86,WSW,238,0.0,9.0,66,0.00,,,0.02,meteohub,2013-08-04 17:57:00,
2013-08-04 19:02:00,68.7,56.1,29.86,SSW,208,4.0,9.0,64,0.00,,,0.02,meteohub,2013-08-04 18:02:00,
2013-08-04 19:07:00,68.5,56.7,29.86,SW,217,2.0,9.0,66,0.00,,,0.02,meteohub,2013-08-04 18:07:00,
2013-08-04 19:17:00,68.7,56.8,29.86,South,185,1.0,5.0,66,0.00,,,0.02,meteohub,2013-08-04 18:17:00,
2013-08-04 19:22:00,68.5,56.3,29.86,NW,313,1.0,6.0,65,0.00,,,0.02,meteohub,2013-08-04 18:22:00,
2013-08-04 19:27:00,68.4,56.5,29.86,WNW,294,1.0,6.0,66,0.00,,,0.02,meteohub,2013-08-04 18:27:00,
2013-08-04 19:32:00,68.4,57.0,29.86,WNW,290,2.0,11.0,67,0.00,,,0.02,meteohub,2013-08-04 18:32:00,
2013-08-04 19:37:00,68.5,55.4,29.86,NW,306,4.0,11.0,63,0.00,,,0.02,meteohub,2013-08-04 18:37:00,
2013-08-04 19:42:00,68.5,54.5,29.86,NW,318,2.0,11.0,61,0.00,,,0.02,meteohub,2013-08-04 18:42:00,
2013-08-04 19:47:00,68.4,54.3,29.86,NNW,332,1.0,9.0,61,0.00,,,0.02,meteohub,2013-08-04 18:47:00,
2013-08-04 19:57:00,67.6,54.7,29.86,WNW,289,2.0,9.0,63,0.00,,,0.02,meteohub,2013-08-04 18:57:00,
2013-08-04 20:07:00,67.5,55.2,29.86,NW,318,2.0,8.0,65,0.00,,,0.02,meteohub,2013-08-04 19:07:00,
2013-08-04 20:12:00,67.5,55.8,29.86,NW,309,2.0,5.0,66,0.00,,,0.02,meteohub,2013-08-04 19:12:00,
2013-08-04 20:17:00,67.3,56.3,29.87,NNW,343,5.0,6.0,68,0.00,,,0.02,meteohub,2013-08-04 19:17:00,
2013-08-04 20:22:00,67.1,56.1,29.87,NNW,334,5.0,9.0,68,0.00,,,0.02,meteohub,2013-08-04 19:22:00,
2013-08-04 20:27:00,66.7,56.3,29.87,NW,325,6.0,11.0,69,0.00,,,0.02,meteohub,2013-08-04 19:27:00,
2013-08-04 20:31:00,66.4,56.3,29.87,NNW,333,6.0,11.0,70,0.00,,,0.02,meteohub,2013-08-04 19:31:00,
2013-08-04 20:37:00,65.8,56.1,29.87,NNW,339,6.0,11.0,71,0.00,,,0.02,meteohub,2013-08-04 19:37:00,
2013-08-04 20:47:00,64.9,55.8,29.88,North,0,4.0,11.0,72,0.00,,,0.02,meteohub,2013-08-04 19:47:00,
2013-08-04 20:51:00,64.8,55.9,29.88,North,355,5.0,10.0,73,0.00,,,0.02,meteohub,2013-08-04 19:51:00,
2013-08-04 20:57:00,64.6,55.8,29.88,NNW,334,4.0,10.0,73,0.00,,,0.02,meteohub,2013-08-04 19:57:00,
2013-08-04 21:07:00,63.9,55.4,29.88,NNW,338,6.0,9.0,74,0.00,,,0.02,meteohub,2013-08-04 20:07:00,
2013-08-04 21:17:00,63.1,55.0,29.88,NNW,340,5.0,9.0,75,0.00,,,0.02,meteohub,2013-08-04 20:17:00,
2013-08-04 21:22:00,63.0,55.2,29.88,NNW,333,4.0,9.0,76,0.00,,,0.02,meteohub,2013-08-04 20:22:00,
2013-08-04 21:27:00,62.6,54.9,29.88,NNW,340,5.0,9.0,76,0.00,,,0.02,meteohub,2013-08-04 20:27:00,
2013-08-04 21:32:00,62.4,55.0,29.88,North,0,2.0,9.0,77,0.00,,,0.02,meteohub,2013-08-04 20:32:00,
2013-08-04 21:42:00,61.9,54.9,29.89,NNW,336,2.0,8.0,78,0.00,,,0.02,meteohub,2013-08-04 20:42:00,
2013-08-04 21:47:00,61.5,54.7,29.88,NNW,336,2.0,8.0,78,0.00,,,0.02,meteohub,2013-08-04 20:47:00,
2013-08-04 21:51:00,61.3,54.9,29.89,NW,324,2.0,8.0,79,0.00,,,0.02,meteohub,2013-08-04 20:51:00,
2013-08-04 21:57:00,61.2,54.7,29.89,NNW,335,2.0,8.0,79,0.00,,,0.02,meteohub,2013-08-04 20:57:00,
2013-08-04 22:02:00,61.0,54.7,29.89,NNW,341,4.0,8.0,80,0.00,,,0.02,meteohub,2013-08-04 21:02:00,
2013-08-04 22:07:00,60.6,54.7,29.89,NNW,348,2.0,6.0,81,0.00,,,0.02,meteohub,2013-08-04 21:07:00,
2013-08-04 22:17:00,60.1,54.3,29.89,NNW,344,4.0,6.0,81,0.00,,,0.02,meteohub,2013-08-04 21:17:00,
2013-08-04 22:27:00,59.7,54.0,29.90,NNW,347,2.0,6.0,81,0.00,,,0.02,meteohub,2013-08-04 21:27:00,
2013-08-04 22:37:00,59.7,54.0,29.90,NNW,333,6.0,8.0,81,0.00,,,0.02,meteohub,2013-08-04 21:37:00,
2013-08-04 22:42:00,59.5,53.8,29.89,NNW,336,6.0,9.0,81,0.00,,,0.02,meteohub,2013-08-04 21:42:00,
2013-08-04 22:47:00,59.4,53.6,29.89,NNW,337,4.0,9.0,81,0.00,,,0.02,meteohub,2013-08-04 21:47:00,
2013-08-04 22:52:00,59.2,53.4,29.89,NW,319,8.0,11.0,81,0.00,,,0.02,meteohub,2013-08-04 21:52:00,
2013-08-04 22:56:00,58.8,53.1,29.89,North,351,2.0,11.0,81,0.00,,,0.02,meteohub,2013-08-04 21:56:00,
2013-08-04 23:02:00,58.6,52.9,29.88,NNW,344,8.0,9.0,81,0.00,,,0.02,meteohub,2013-08-04 22:02:00,
2013-08-04 23:07:00,58.5,52.3,29.88,NNW,340,6.0,10.0,80,0.00,,,0.02,meteohub,2013-08-04 22:07:00,
2013-08-04 23:12:00,58.3,52.2,29.89,NNW,329,9.0,11.0,80,0.00,,,0.02,meteohub,2013-08-04 22:12:00,
2013-08-04 23:16:00,58.1,52.0,29.89,North,0,9.0,11.0,80,0.00,,,0.02,meteohub,2013-08-04 22:16:00,
2013-08-04 23:22:00,57.9,51.8,29.89,NW,311,6.0,11.0,80,0.00,,,0.02,meteohub,2013-08-04 22:22:00,
2013-08-04 23:27:00,57.7,52.0,29.89,NNW,347,6.0,11.0,81,0.00,,,0.02,meteohub,2013-08-04 22:27:00,
2013-08-04 23:36:00,57.4,51.6,29.89,North,0,6.0,10.0,81,0.00,,,0.02,meteohub,2013-08-04 22:36:00,
2013-08-04 23:41:00,57.4,51.6,29.89,North,0,5.0,11.0,81,0.00,,,0.02,meteohub,2013-08-04 22:41:00,
2013-08-04 23:52:00,57.0,51.3,29.89,North,355,2.0,11.0,81,0.00,,,0.02,meteohub,2013-08-04 22:52:00,